TimePST,TemperatureF,Dew PointF,Humidity,Sea Level PressureIn,VisibilityMPH,Wind Direction,Wind SpeedMPH,Gust SpeedMPH,PrecipitationIn,Events,Conditions,WindDirDegrees,DateUTC
12:15 AM,39.2,37.4,93,30.08,10.0,SSW,12.7,-,0.02,,Overcast,210,2012-12-05 08:15:00
12:35 AM,39.2,37.4,93,30.08,10.0,SSW,10.4,-,0.02,,Overcast,210,2012-12-05 08:35:00
12:55 AM,39.2,37.4,93,30.08,10.0,South,9.2,-,0.03,,Overcast,190,2012-12-05 08:55:00
1:15 AM,39.2,37.4,93,30.09,10.0,SSW,8.1,-,N/A,,Overcast,210,2012-12-05 09:15:00
1:35 AM,39.2,37.4,93,30.10,10.0,South,6.9,-,N/A,,Overcast,190,2012-12-05 09:35:00
1:55 AM,39.2,37.4,93,30.11,10.0,SSE,6.9,-,0.01,,Overcast,160,2012-12-05 09:55:00
2:15 AM,39.2,37.4,93,30.11,10.0,SSE,6.9,-,N/A,,Overcast,160,2012-12-05 10:15:00
2:35 AM,39.2,37.4,93,30.12,10.0,SSE,10.4,-,N/A,,Overcast,150,2012-12-05 10:35:00
2:55 AM,39.2,37.4,93,30.12,10.0,SSE,9.2,-,N/A,,Overcast,150,2012-12-05 10:55:00
3:15 AM,39.2,37.4,93,30.12,10.0,SSE,13.8,-,N/A,,Overcast,150,2012-12-05 11:15:00
3:35 AM,39.2,37.4,93,30.11,10.0,SSE,16.1,-,N/A,,Overcast,150,2012-12-05 11:35:00
3:55 AM,39.2,37.4,93,30.10,10.0,SSE,18.4,23.0,N/A,,Overcast,150,2012-12-05 11:55:00
4:15 AM,37.4,37.4,100,30.09,10.0,SSE,16.1,-,N/A,,Overcast,150,2012-12-05 12:15:00
4:35 AM,37.4,35.6,93,30.09,10.0,SSE,12.7,-,N/A,,Overcast,150,2012-12-05 12:35:00
4:55 AM,37.4,37.4,100,30.09,10.0,SE,11.5,-,N/A,,Overcast,140,2012-12-05 12:55:00
6:35 AM,39.2,37.4,93,30.12,10.0,SSE,10.4,-,N/A,,Overcast,160,2012-12-05 14:35:00
6:55 AM,39.2,37.4,93,30.12,10.0,SSE,11.5,-,N/A,,Overcast,150,2012-12-05 14:55:00
7:15 AM,39.2,37.4,93,30.12,10.0,SSE,10.4,-,N/A,,Overcast,150,2012-12-05 15:15:00
7:35 AM,39.2,37.4,93,30.12,10.0,SE,11.5,-,N/A,,Overcast,140,2012-12-05 15:35:00
7:55 AM,39.2,37.4,93,30.13,10.0,SSE,13.8,-,N/A,,Overcast,150,2012-12-05 15:55:00
8:15 AM,39.2,39.2,100,30.14,10.0,SSE,10.4,-,N/A,,Overcast,160,2012-12-05 16:15:00
8:35 AM,39.2,39.2,100,30.14,10.0,SSE,13.8,-,N/A,,Overcast,160,2012-12-05 16:35:00
8:55 AM,39.2,39.2,100,30.15,10.0,SSE,13.8,-,N/A,,Overcast,160,2012-12-05 16:55:00
9:15 AM,41.0,39.2,93,30.15,10.0,SSE,13.8,18.4,N/A,,Overcast,160,2012-12-05 17:15:00
9:35 AM,42.8,39.2,87,30.15,10.0,South,15.0,18.4,N/A,,Overcast,170,2012-12-05 17:35:00
9:55 AM,42.8,39.2,87,30.16,10.0,SSE,12.7,18.4,N/A,,Overcast,160,2012-12-05 17:55:00
10:15 AM,42.8,41.0,93,30.16,10.0,South,11.5,-,N/A,,Overcast,170,2012-12-05 18:15:00
10:35 AM,42.8,39.2,87,30.16,10.0,SSE,10.4,-,N/A,,Overcast,160,2012-12-05 18:35:00
10:55 AM,42.8,41.0,93,30.16,10.0,SSE,12.7,16.1,N/A,,Overcast,150,2012-12-05 18:55:00
11:15 AM,44.6,41.0,87,30.16,10.0,SSE,11.5,-,N/A,,Mostly Cloudy,150,2012-12-05 19:15:00
11:35 AM,44.6,41.0,87,30.15,10.0,SSE,10.4,-,N/A,,Mostly Cloudy,160,2012-12-05 19:35:00
11:55 AM,44.6,42.8,93,30.15,10.0,SSE,12.7,-,N/A,,Mostly Cloudy,160,2012-12-05 19:55:00
12:15 PM,44.6,42.8,93,30.15,10.0,SSE,13.8,-,N/A,,Overcast,160,2012-12-05 20:15:00
12:35 PM,46.4,42.8,87,30.14,10.0,SSE,10.4,-,N/A,,Mostly Cloudy,160,2012-12-05 20:35:00
12:55 PM,46.4,42.8,87,30.13,10.0,SSE,15.0,-,N/A,,Mostly Cloudy,160,2012-12-05 20:55:00
1:15 PM,48.2,42.8,82,30.13,10.0,SSE,11.5,-,N/A,,Mostly Cloudy,160,2012-12-05 21:15:00
1:35 PM,48.2,41.0,76,30.13,10.0,South,9.2,-,N/A,,Mostly Cloudy,170,2012-12-05 21:35:00
1:55 PM,48.2,42.8,82,30.12,10.0,South,12.7,16.1,N/A,,Mostly Cloudy,170,2012-12-05 21:55:00
2:15 PM,48.2,41.0,76,30.12,10.0,South,11.5,-,N/A,,Scattered Clouds,170,2012-12-05 22:15:00
2:35 PM,48.2,39.2,71,30.11,10.0,South,12.7,17.3,N/A,,Scattered Clouds,170,2012-12-05 22:35:00
2:55 PM,46.4,39.2,76,30.11,10.0,South,13.8,17.3,N/A,,Mostly Cloudy,170,2012-12-05 22:55:00
3:15 PM,44.6,39.2,81,30.11,10.0,South,11.5,-,N/A,,Scattered Clouds,170,2012-12-05 23:15:00
3:35 PM,46.4,39.2,76,30.11,10.0,South,15.0,-,N/A,,Scattered Clouds,190,2012-12-05 23:35:00
3:55 PM,44.6,39.2,81,30.12,10.0,South,10.4,-,N/A,,Partly Cloudy,190,2012-12-05 23:55:00
4:15 PM,42.8,37.4,81,30.12,10.0,South,9.2,-,N/A,,Clear,180,2012-12-06 00:15:00
4:35 PM,41.0,37.4,87,30.12,10.0,South,9.2,-,N/A,,Clear,170,2012-12-06 00:35:00
4:55 PM,39.2,37.4,93,30.12,10.0,SSE,6.9,-,N/A,,Clear,150,2012-12-06 00:55:00
5:15 PM,35.6,35.6,100,30.12,10.0,SE,8.1,-,N/A,,Clear,140,2012-12-06 01:15:00
5:35 PM,37.4,37.4,100,30.12,10.0,SSE,9.2,-,N/A,,Clear,160,2012-12-06 01:35:00
5:55 PM,37.4,37.4,100,30.12,10.0,SSE,10.4,-,N/A,,Clear,150,2012-12-06 01:55:00
6:15 PM,39.2,37.4,93,30.13,10.0,SSE,12.7,-,N/A,,Clear,150,2012-12-06 02:15:00
6:35 PM,37.4,35.6,93,30.12,10.0,SSE,11.5,-,N/A,,Clear,150,2012-12-06 02:35:00
6:55 PM,37.4,35.6,93,30.13,10.0,SSE,11.5,-,N/A,,Partly Cloudy,160,2012-12-06 02:55:00
7:15 PM,37.4,35.6,93,30.13,10.0,SSE,10.4,-,N/A,,Scattered Clouds,160,2012-12-06 03:15:00
7:35 PM,37.4,35.6,93,30.13,10.0,SSE,8.1,-,N/A,,Overcast,160,2012-12-06 03:35:00
7:55 PM,37.4,35.6,93,30.14,10.0,SSE,10.4,-,N/A,,Overcast,160,2012-12-06 03:55:00
8:15 PM,37.4,35.6,93,30.14,10.0,SSE,10.4,-,N/A,,Mostly Cloudy,160,2012-12-06 04:15:00
8:35 PM,35.6,33.8,93,30.14,10.0,South,8.1,-,N/A,,Partly Cloudy,170,2012-12-06 04:35:00
8:55 PM,35.6,33.8,93,30.14,10.0,South,8.1,-,N/A,,Clear,180,2012-12-06 04:55:00
9:15 PM,33.8,33.8,100,30.14,10.0,SSE,9.2,-,N/A,,Clear,160,2012-12-06 05:15:00
9:35 PM,35.6,33.8,93,30.14,10.0,SSE,9.2,-,N/A,,Clear,150,2012-12-06 05:35:00
9:55 PM,35.6,33.8,93,30.14,10.0,SSE,10.4,-,N/A,,Clear,160,2012-12-06 05:55:00
10:15 PM,35.6,33.8,93,30.13,10.0,South,10.4,-,N/A,,Clear,170,2012-12-06 06:15:00
10:35 PM,35.6,33.8,93,30.14,10.0,South,10.4,-,N/A,,Clear,170,2012-12-06 06:35:00
10:55 PM,33.8,32.0,93,30.14,10.0,South,6.9,-,N/A,,Scattered Clouds,170,2012-12-06 06:55:00
11:15 PM,35.6,33.8,93,30.13,10.0,SSE,8.1,-,N/A,,Mostly Cloudy,160,2012-12-06 07:15:00
11:35 PM,37.4,35.6,93,30.13,10.0,South,9.2,-,N/A,,Overcast,190,2012-12-06 07:35:00
11:55 PM,35.6,33.8,93,30.13,10.0,SSE,8.1,-,N/A,,Overcast,160,2012-12-06 07:55:00